Tracking 30692 objects as of 16-Jun-2025
HD Live streaming from Space Station
objects crossing your sky now

STARLINK-31306

Track STARLINK-31306 now!
10-day predictions
STARLINK-31306 is classified as:


NORAD ID: 58876
Int'l Code: 2024-020A
Perigee: 481.4 km
Apogee: 483.4 km
Inclination: 53.2 °
Period: 94.1 minutes
Semi major axis: 6853 km
RCS: Unknown
Launch date: January 29, 2024
Source: United States (US)
Launch site: AIR FORCE WESTERN TEST RANGE (AFWTR)
Your satellite tracking list
Your tracking list is empty




NASA's NSSDC Master Catalog

Two Line Element Set (TLE):
1 58876U 24020A   25167.13448178  .00001270  00000-0  55025-4 0  9990
2 58876  53.1598 120.3087 0001445  81.3741 278.7423 15.30189348 78433
Source of the keplerian elements: AFSPC